Regional Weather Roundup
Issued by NWS

Home | Current Version | Previous Version | Graphics & Text | Print | Product List | Glossary On
Versions: 1 2 3 4 5 6 7 8 9 10 11 12 13 14 15 16 17 18 19 20 21 22 23 24 25 26 27 28 29 30 31 32 33 34 35 36 37 38 39 40 41 42 43 44 45 46 47 48 49 50
000
ASUS43 KMKX 010500
RWRWI

WISCONSIN REGIONAL WEATHER ROUNDUP
NATIONAL WEATHER SERVICE MILWAUKEE/SULLIVAN WI
1200 AM CDT TUE SEP 01 2015

NOTE: "FAIR" INDICATES FEW OR NO CLOUDS BELOW 12,000 FEET WITH NO
SIGNIFICANT WEATHER AND/OR OBSTRUCTIONS TO VISIBILITY.

WIZ001-002-006>008-014>016-023>028-010600-
NORTHWEST WISCONSIN

CITY           SKY/WX    TMP DP  RH WIND       PRES   REMARKS
SUPERIOR ARPT  MOCLDY    71  69  95 CALM      29.86S
ASHLAND        PTCLDY    72  71  97 SW6       29.90R
HAYWARD        MOCLDY    72  69  90 SW6       29.93S
SIREN          PTCLDY    72  70  94 S5        29.91S
CUMBERLAND     PTCLDY    70  68  94 S5        29.94S FOG
RICE LAKE      CLEAR     70  68  92 SE5       29.94F FOG
CHETEK         PTCLDY   N/A N/A N/A CALM      29.94S
LADYSMITH      MOCLDY    72  69  92 S5        29.97S
EAU CLAIRE     PTCLDY    73  69  87 S10       29.94S
MENOMONIE      CLEAR     69  68  97 CALM      29.94S FOG
NEW RICHMOND   CLEAR     73  71  95 S7        29.93R
OSCEOLA        PTCLDY    73  73 100 CALM      29.94S
$$

WIZ003>005-009-010-017-018-010600-
NORTH CENTRAL WISCONSIN

CITY           SKY/WX    TMP DP  RH WIND       PRES   REMARKS
MANITOWISH WTR CLEAR     68  68 100 S7        29.97F
ARBOR VITAE    CLEAR     71  69  93 S9        29.99S
WOODRUFF       CLEAR     71  69  93 S9        29.99S
RHINELANDER    CLEAR     69  66  90 SW8       30.01R
EAGLE RIVER    CLEAR     67  66  99 CALM      29.99S FOG
LAND O LAKES   CLEAR     67  65  94 SW3       30.00S FOG
PHILLIPS       MOCLDY    69  68  96 S7        29.97S
TOMAHAWK       PTCLDY    65  64  97 CALM      30.00S FOG
MEDFORD        CLOUDY    67  66  99 S7        30.00S FOG
MERRILL        CLEAR     64  64 100 CALM      30.00S FOG
$$

WIZ029-030-035-036-043>047-010600-
CENTRAL WISCONSIN

CITY           SKY/WX    TMP DP  RH WIND       PRES   REMARKS
WAUSAU         CLEAR     68  66  93 S5        29.99S FOG
MOSINEE        CLEAR     64  64 100 S6        30.01S FOG
MARSHFIELD     CLEAR     67  64  90 S7        30.00S FOG
STEVENS POINT  CLEAR     63  62  97 CALM      30.01S
WAUPACA        FOG       66  66  98 CALM      30.00S VSB 1/4
WAUTOMA        NOT AVBL
WISC RAPIDS    LGT RAIN  70  65  84 S5        30.01S
CAMP DOUGLAS   NOT AVBL
$$

WIZ011>013-019>022-031-037>040-048>050-010600-
NORTHEAST WISCONSIN

CITY           SKY/WX    TMP DP  RH WIND       PRES   REMARKS
ANTIGO         CLEAR     66  66  99 SW7       30.02S
SHAWANO        CLEAR     70  67  92 CALM      29.99S FOG
OCONTO         CLEAR     63  63 100 CALM      29.99S
STURGEON BAY   CLEAR     66  63  88 S9        30.02S
GREEN BAY      CLEAR     69  66  90 S7        30.00S FOG
MANITOWOC      NOT AVBL
APPLETON       CLEAR     68  66  94 S6        30.00R FOG
CLINTONVILLE   FOG       64  63  94 CALM      30.00S VSB 1/4
OSHKOSH        CLEAR     67  64  90 S9        30.01R FOG
$$

WIZ032>034-041-042-053>061-010600-
SOUTHWEST WISCONSIN

CITY           SKY/WX    TMP DP  RH WIND       PRES   REMARKS
LA CROSSE      PTCLDY    72  70  93 SW6       29.96S
SPARTA         CLEAR     67  65  93 CALM      29.98S
VIROQUA          N/A     71  71 100 S6        30.01S
BOSCOBEL       CLEAR     70  68  93 CALM      29.98F FOG
PRAIRIE DU CHI CLEAR     73  69  87 CALM      29.97F
PLATTEVILLE    CLEAR     73  70  92 SE8       30.00S
$$

WIZ056-057-062-063-064-067-068-010600-
SOUTH CENTRAL WISCONSIN

CITY           SKY/WX    TMP DP  RH WIND       PRES   REMARKS
REEDSBURG      CLEAR     69  67  94 CALM      30.00R
BARABOO/DELLS  CLEAR     71  66  85 S7        30.01R
LONE ROCK      NOT AVBL
MINERAL POINT  CLEAR     72  70  94 SE6       30.02S
MADISON        CLEAR     71  67  87 S3        30.01S
MIDDLETON      CLEAR     66  65  99 CALM      30.02S
WATERTOWN      CLEAR     68  68 100 CALM      30.02S
MONROE         CLEAR     72  68  88 S8        30.03S
JANESVILLE     CLEAR     70  68  94 CALM      30.02S
$$

WIZ051-052-058>065-066-070>072-010600-
SOUTHEAST WISCONSIN

CITY           SKY/WX    TMP DP  RH WIND       PRES   REMARKS
MILWAUKEE      PTCLDY    69  65  86 S6        30.04R
WAUKESHA       CLEAR     66  64  94 S5        30.05S FOG
MILWAUKEE/TIMM CLEAR     68  63  83 SW3       30.04S
RACINE         CLEAR     70  65  84 S6        30.06R
BURLINGTON     FOG       62  62  99 CALM      30.04S VSB 1/4
KENOSHA        CLEAR     67  65  93 CALM      30.04F
FOND DU LAC    CLEAR     69  67  93 S6        30.02S
SHEBOYGAN      CLEAR     62  62 100 CALM      30.03R FOG
WEST BEND      CLEAR     64  63  94 CALM      30.04S FOG
JUNEAU         CLEAR     67  66  96 CALM      30.04S FOG
$$

LSZ147-162-010600-
LAKE SUPERIOR

STATION/POSITION TIME  TEMP    WIND        PRES    WAVE
                       AIR SEA DIR/SP/G            HT/PER
                 (UTC) (F)     (DEG/KT/KT) (MB)    (FT/S)
W MID LAKE BUOY  0350   62 55  220/ 10/ 12 1011.2F   1/ 3
DEVILS ISLAND    0400   73     190/ 10/ 13 1011.0F
PORT WING        0400   75     180/  9/ 13 1011.5F
SAXON HARBOR     0400   75     200/  6/ 12 1011.5
$$

LMZ867-665-643>646-010600-
LAKE MICHIGAN

STATION/POSITION TIME  TEMP    WIND        PRES    WAVE
                       AIR SEA DIR/SP/G            HT/PER
                 (UTC) (F)     (DEG/KT/KT) (MB)    (FT/S)
CHAMBERS ISLAND  0400   69     180/  5/  9 1015.6R
S GREEN BAY BUOY 0400   68 64  180/  8/ 10 1016.7
N MID LAKE BUOY  0350   65 65  200/ 14/ 16 1015.3F   3/ 4
NORTHPORT PIER   0400   64     160/  3/  6 1015.2F
KEWAUNEE LAKESHO 0400   50     180/  5/  7   N/A
SHEBOYGAN LAKESH 0400   60     180/ 11/ 11 1016.9F
PORT WASHINGTON  0400   58     190/  2/  3 1017.6F
ATWATER BUOY     0400   56 51  150/  6/  6 1018.3R
MILWAUKEE LAKESH 0410   60     120/  2/  2   N/A
S MID LAKE BUOY  0350   71 70  160/  8/  8 1016.9S   0
KENOSHA   LAKESH 0400   70     180/  8/ 10 1016.9S
$$

TC  - TEMPERATURE IN CELSIUS
VSB - VISIBILITY IN STATUTE MILES
WCI - WIND CHILL INDEX
HX  - HEAT INDEX




USA.gov is the U.S. government's official web portal to all federal, state and local government web resources and services.